This demonstration page uses our WeatherBlox Daily Observations layout. Learn more.

Left ArrowRight Arrow

39.01783, -85.05884

Hourly Observations for October 16, 2016

Temp ( °F °C ) Dew Point ( °F °C ) Humidity (%) Winds ( mph kmh ) Pressure ( in mb ) Visibility ( mi km ) Precip ( " mm )
12:52 am 00:52 Partly Cloudy 64 17.8 59 15 84 84 S 7 11 30.09 1019 10 16 0.00 0.00
1:52 am 01:52 Mostly Clear 64 17.8 59 15 84 84 SSW 7 11 30.09 1019 10 16 0.00 0.00
2:52 am 02:52 Mostly Clear 63 17.2 58 14.4 84 84 S 7 11 30.09 1019 10 16 0.00 0.00
3:52 am 03:52 Mostly Clear 64 17.8 58 14.4 81 81 SSW 8 13 30.09 1019 10 16 0.00 0.00
4:52 am 04:52 Mostly Clear 63 17.2 57 13.9 81 81 SSW 7 11 30.09 1019 10 16 0.00 0.00
5:52 am 05:52 Partly Cloudy 63 17.2 57 13.9 81 81 SSW 8 13 30.10 1019 10 16 0.00 0.00
6:52 am 06:52 Partly Cloudy 63 17.2 57 13.9 81 81 SSW 9 15 30.10 1019 10 16 0.00 0.00
7:52 am 07:52 Mostly Sunny 62 16.7 57 13.9 84 84 S 12 19 30.09 1019 10 16 0.00 0.00
8:52 am 08:52 Mostly Sunny 63 17.2 58 14.4 84 84 S 8 13 30.09 1019 10 16 0.00 0.00
9:52 am 09:52 Mostly Sunny 66 18.9 59 15 78 78 SSW 10 17 30.09 1019 10 16 0.00 0.00
10:52 am 10:52 Mostly Sunny 70 21.1 60 15.6 71 71 SSW 12 19 30.10 1019 10 16 0.00 0.00
11:52 am 11:52 Mostly Sunny 74 23.3 61 16.1 64 64 SW 10 17 30.09 1019 10 16 0.00 0.00
12:52 pm 12:52 Partly Cloudy 77 25 61 16.1 58 58 SW 12 19 30.06 1018 10 16 0.00 0.00
1:52 pm 13:52 Partly Cloudy 79 26.1 61 16.1 54 54 S 15 24 30.04 1017 10 16 0.00 0.00
2:52 pm 14:52 Partly Cloudy 78 25.6 59 15 52 52 SW 12 19 30.01 1016 10 16 0.00 0.00
3:52 pm 15:52 Mostly Cloudy 78 25.6 59 15 52 52 SW 8 13 30.00 1016 10 16 0.00 0.00
4:52 pm 16:52 Mostly Cloudy 77 25 60 15.6 56 56 SW 9 15 29.98 1015 10 16 0.00 0.00
5:52 pm 17:52 Mostly Cloudy 77 25 60 15.6 56 56 SSW 8 13 29.97 1015 10 16 0.00 0.00
6:52 pm 18:52 Mostly Cloudy 75 23.9 60 15.6 60 60 SSW 7 11 29.97 1015 10 16 0.00 0.00
7:52 pm 19:52 Partly Cloudy 72 22.2 60 15.6 66 66 S 5 7 29.98 1015 10 16 0.00 0.00
8:52 pm 20:52 Mostly Cloudy 69 20.6 61 16.1 76 76 S 8 13 29.98 1015 10 16 0.00 0.00
9:52 pm 21:52 Cloudy 71 21.7 60 15.6 68 68 SSW 7 11 29.98 1015 10 16 0.00 0.00
10:52 pm 22:52 Mostly Clear 69 20.6 60 15.6 73 73 S 7 11 29.97 1015 10 16 0.00 0.00
11:52 pm 23:52 Mostly Clear 66 18.9 60 15.6 81 81 S 6 9 29.98 1015 10 16 0.00 0.00

Powered by AerisWeather